Showing default

OPS 1509 (TRANSIT 10), 1864

Orbit data source: Space-Track

OPS 1509 (TRANSIT 10), 1864 is a payload satellite owned by USN BuWeps (US) in LEO that was launched on Wed, 22 Dec 1965 UTC via an SCOUT A launch vehicle from the Air Force Western Test Range (AFWTR). Payloads include a variety of satellites, spacecraft, and rockets equipped with specific instruments for various scientific and technological missions. These include communications satellites like Starlink; space stations such as the ISS; scientific satellites like the Hubble; Earth observation satellites from companies like Planet Labs, Umbra, and HawkEye 360; GPS; miniature CubeSats for education and research; and military/defense satellites.

Loading next visibility...
OPS 1509 (TRANSIT 10) details
Identifier
1864, 1965-109A
Orbit
LEO
Last TLE update20 hours ago
Origin
Flag of USUSN BuWeps (US)
ManufacturerAPL
MissionDefense Navigation
Bus & MotorTRANSIT 5, Unknown motor
Mass51 kg wet, 51 kg dry
Launch date (UTC)
1965-12-22 (59 years ago)
Launch vehicle
SCOUT A
Launch site
Air Force Western Test Range (AFWTR)
Object type
Payload
Rocket body
Debris
Shape & HBROct Cyl + 4 Pan + 1 Rod, Unknown HBR
Radar Cross Section7.565 m², Large (>1 m²)

Expand to show TLE details & history

TLE from 20 hours ago
0 OPS 1509 (TRANSIT 10)
1 01864U 65109A   24355.78644187  .00000333  00000-0  29978-3 0  9991
2 01864  89.0617 289.3269 0112276  62.9333 298.3238 13.78815085961216
Epoch: 2024-12-20T18:52Z
Definitive object data (Epoch: 2024-12-20T18:52:28.577Z)
Latitude-0.00002°
Longitude-83.63912°
Altitude932.669 km
Speed7.405 km/s
True Right ascension19h 17m 18s
True Declination0° 00' 00"
Sunlit
Object was in daylight at TLE epoch
Visualization TLE readout
Latitude33.27317°
Longitude95.66608°
Altitude966.344 km
Speed7.375 km/s
Apparent Right ascension04h 52m 45s
Apparent Declination0° 25' 12"
Sunlit
Object is in full shadow
Visualization observer readout
Local Sidereal Time13:46:02
Azimuth300.853° NW
Elevation-32.067°
Doppler factor1
Orbital elements
Apogee altitude1,047.549 km
Perigee altitude882.655 km
Semi-major axis7,343.239 km
Eccentricity0.0112276
Inclination89.0617°
RAAN289.3269°
Arg. of periapsis62.9333°
True anomaly297.18373°
Mean anomaly298.3238°
Eccentric anomaly297.75452°
Mean motion3.44915 °/min
BSTAR0.00029978
Orbital period104.37 mins
Loading maneuver chart data...
Loading historical data...
Loading historical data...
Loading historical data...
Loading historical data...
Loading historical data...
Loading historical data...
Loading historical data...

OPS 1509 (TRANSIT 10) Visibility forecast

Observer location: undefined°, undefined

Span
Click to sort rows by Start time (UTC) header in descending order
Start Az.
Max El. time (UTC)
Max El. Az.
Max El.
End time (UTC)
End Az.
9 mins2024-12-21 19:22:51.709Z137.752° SSE2024-12-21 19:26:51.709Z85.615° E28.578°2024-12-21 19:31:51.709Z19.713° NNE
8 mins2024-12-21 21:07:51.709Z225.402° WSW2024-12-21 21:11:51.709Z284.38° WNW26.588°2024-12-21 21:15:51.709Z334.221° NNW
10 mins2024-12-22 08:02:51.709Z2.197° NNE2024-12-22 08:06:51.709Z52.397° ENE44.96°2024-12-22 08:12:51.709Z181.718° SSW
|